This demonstration page uses our WeatherBlox Daily Observations layout. Learn more.

Hourly Observations for December 26, 2019

Temp ( °F °C ) Dew Point ( °F °C ) Humidity (%) Winds ( mph kmh ) Pressure ( in mb ) Visibility ( mi km ) Precip ( " mm )
12:54 am 00:54 Cloudy 32 0 27 -2.8 82 82 NW 15 24 29.91 1013 8 12.87472 0 0
1:30 am 01:30 Cloudy 32 0 27 -2.8 82 82 NNW 12 19 29.96 1015 8 12.87472 0 0
1:54 am 01:54 Cloudy 32 0 26 -3.3 79 79 NNW 14 22 29.93 1014 8 12.87472 0 0
2:54 am 02:54 Cloudy 31 -0.6 25 -3.9 79 79 NNW 14 22 29.97 1015 9 14.48406 0 0
3:54 am 03:54 Cloudy 31 -0.6 25 -3.9 79 79 N 15 24 29.98 1015 10 16.0934 0 0
4:54 am 04:54 Cloudy 31 -0.6 25 -3.9 79 79 NNW 9 15 29.99 1016 10 16.0934 0 0
5:54 am 05:54 Cloudy 31 -0.6 25 -3.9 79 79 N 12 19 30.01 1016 10 16.0934 0 0
6:54 am 06:54 Cloudy 31 -0.6 25 -3.9 79 79 N 12 19 30.04 1017 10 16.0934 0 0
7:54 am 07:54 Cloudy 31 -0.6 25 -3.9 79 79 NNW 9 15 30.07 1018 10 16.0934 0 0
8:54 am 08:54 Cloudy 32 0 26 -3.3 79 79 NNW 7 11 30.1 1019 10 16.0934 0 0
9:54 am 09:54 Cloudy 32 0 25 -3.9 75 75 NW 8 13 30.14 1021 10 16.0934 0 0
10:54 am 10:54 Cloudy 33 0.6 26 -3.3 75 75 NNW 7 11 30.14 1021 10 16.0934 0 0
11:54 am 11:54 Cloudy 33 0.6 26 -3.3 75 75 NW 8 13 30.13 1020 10 16.0934 0 0
12:54 pm 12:54 Cloudy 34 1.1 26 -3.3 73 73 NNW 9 15 30.12 1020 10 16.0934 0 0
1:36 pm 13:36 Cloudy 34 1.1 26 -3.3 73 73 NW 8 13 30.15 1021 10 16.0934 0 0
1:54 pm 13:54 Cloudy 33 0.6 25 -3.9 72 72 WNW 9 15 30.13 1020 10 16.0934 0 0
2:41 pm 14:41 Partly Cloudy 36 2.2 25 -3.9 64 64 NW 7 11 30.16 1021 10 16.0934 0 0
2:54 pm 14:54 Sunny 37 2.8 25 -3.9 62 62 NW 7 11 30.14 1021 10 16.0934 0 0
3:54 pm 15:54 Sunny 39 3.9 23 -5 53 53 NNW 8 13 30.16 1021 10 16.0934 0 0
4:54 pm 16:54 Sunny 37 2.8 24 -4.4 59 59 NNW 9 15 30.17 1022 10 16.0934 0 0
5:54 pm 17:54 Clear 33 0.6 25 -3.9 72 72 NW 7 11 30.2 1023 10 16.0934 0 0
6:54 pm 18:54 Clear 26 -3.3 21 -6.1 81 81 Calm 30.24 1024 10 16.0934 0 0
7:54 pm 19:54 Clear 27 -2.8 22 -5.6 81 81 Calm 30.24 1024 9 14.48406 0 0
8:54 pm 20:54 Clear 22 -5.6 18 -7.8 85 85 Calm 30.26 1025 9 14.48406 0 0
9:54 pm 21:54 Clear 20 -6.7 16 -8.9 85 85 Calm 30.28 1025 8 12.87472 0 0
10:54 pm 22:54 Clear 22 -5.6 19 -7.2 89 89 NNW 3 6 30.27 1025 9 14.48406 0 0
11:54 pm 23:54 Clear 18 -7.8 14 -10 84 84 Calm 30.27 1025 9 14.48406 0 0

Powered by AerisWeather